Time,TemperatureF,DewpointF,PressureIn,WindDirection,WindDirectionDegrees,WindSpeedMPH,WindSpeedGustMPH,Humidity,HourlyPrecipIn,Conditions,Clouds,dailyrainin,SoftwareType,DateUTC
2013-05-09 00:00:00,50.2,47.4,30.15,North,5,0.0,0.0,90,0.00,,,0.00,Wunderground v.1.15,2013-05-09 07:00:00,
2013-05-09 00:10:00,50.1,47.3,30.15,NNW,343,0.0,0.0,90,0.00,,,0.00,Wunderground v.1.15,2013-05-09 07:10:00,
2013-05-09 00:20:00,50.1,47.3,30.16,NW,309,1.0,1.0,90,0.00,,,0.00,Wunderground v.1.15,2013-05-09 07:20:00,
2013-05-09 00:30:00,50.1,47.3,30.15,NW,309,0.0,0.0,90,0.00,,,0.00,Wunderground v.1.15,2013-05-09 07:30:00,
2013-05-09 00:40:00,50.2,47.7,30.16,NW,313,0.0,0.0,91,0.00,,,0.00,Wunderground v.1.15,2013-05-09 07:40:00,
2013-05-09 00:50:00,50.1,47.6,30.16,WNW,296,0.0,0.0,91,0.00,,,0.00,Wunderground v.1.15,2013-05-09 07:50:00,
2013-05-09 01:00:00,50.1,47.6,30.16,WNW,297,0.0,0.0,91,0.00,,,0.00,Wunderground v.1.15,2013-05-09 08:00:00,
2013-05-09 01:10:00,50.2,47.7,30.16,WNW,297,0.0,0.0,91,0.00,,,0.00,Wunderground v.1.15,2013-05-09 08:10:00,
2013-05-09 01:20:00,50.2,47.7,30.16,NW,311,0.0,0.0,91,0.00,,,0.00,Wunderground v.1.15,2013-05-09 08:20:00,
2013-05-09 01:30:00,50.1,47.6,30.16,NW,321,0.0,0.0,91,0.00,,,0.00,Wunderground v.1.15,2013-05-09 08:30:00,
2013-05-09 01:40:00,50.1,47.6,30.16,WNW,288,0.0,0.0,91,0.00,,,0.00,Wunderground v.1.15,2013-05-09 08:40:00,
2013-05-09 01:50:00,50.0,47.8,30.16,NW,310,0.0,2.0,92,0.00,,,0.00,Wunderground v.1.15,2013-05-09 08:50:00,
2013-05-09 01:55:00,50.0,47.5,30.16,NW,310,0.0,2.0,91,0.00,,,0.00,Wunderground v.1.15,2013-05-09 08:55:00,
2013-05-09 02:01:00,50.0,47.8,30.16,North,350,0.0,0.0,92,0.00,,,0.00,Wunderground v.1.15,2013-05-09 09:01:00,
2013-05-09 02:10:00,50.0,47.8,30.15,North,350,0.0,0.0,92,0.00,,,0.00,Wunderground v.1.15,2013-05-09 09:10:00,
2013-05-09 02:20:00,50.0,47.8,30.16,North,350,0.0,0.0,92,0.00,,,0.00,Wunderground v.1.15,2013-05-09 09:20:00,
2013-05-09 02:30:00,50.0,47.8,30.16,North,350,0.0,0.0,92,0.00,,,0.00,Wunderground v.1.15,2013-05-09 09:30:00,
2013-05-09 02:40:00,50.1,47.9,30.16,North,350,0.0,0.0,92,0.00,,,0.00,Wunderground v.1.15,2013-05-09 09:40:00,
2013-05-09 02:50:00,50.1,47.9,30.16,North,350,0.0,0.0,92,0.00,,,0.00,Wunderground v.1.15,2013-05-09 09:50:00,
2013-05-09 03:00:00,50.1,48.2,30.16,North,350,0.0,0.0,93,0.00,,,0.00,Wunderground v.1.15,2013-05-09 10:00:00,
2013-05-09 03:10:00,50.1,48.2,30.16,North,350,0.0,0.0,93,0.00,,,0.00,Wunderground v.1.15,2013-05-09 10:10:00,
2013-05-09 03:20:00,50.1,47.9,30.16,North,350,0.0,0.0,92,0.00,,,0.00,Wunderground v.1.15,2013-05-09 10:20:00,
2013-05-09 03:30:00,50.1,48.2,30.16,North,350,0.0,0.0,93,0.00,,,0.00,Wunderground v.1.15,2013-05-09 10:30:00,
2013-05-09 03:40:00,49.9,48.0,30.16,NW,306,0.0,0.0,93,0.00,,,0.00,Wunderground v.1.15,2013-05-09 10:40:00,
2013-05-09 03:50:00,49.8,47.9,30.16,NW,306,0.0,0.0,93,0.00,,,0.00,Wunderground v.1.15,2013-05-09 10:50:00,
2013-05-09 04:00:00,49.7,47.8,30.16,North,355,1.0,1.0,93,0.00,,,0.00,Wunderground v.1.15,2013-05-09 11:00:00,
2013-05-09 04:10:00,49.7,47.8,30.15,NNW,336,0.0,0.0,93,0.00,,,0.00,Wunderground v.1.15,2013-05-09 11:10:00,
2013-05-09 04:20:00,49.7,47.8,30.15,NNW,336,0.0,0.0,93,0.00,,,0.00,Wunderground v.1.15,2013-05-09 11:20:00,
2013-05-09 04:30:00,49.8,47.9,30.15,North,350,0.0,0.0,93,0.00,,,0.00,Wunderground v.1.15,2013-05-09 11:30:00,
2013-05-09 04:40:00,49.8,47.9,30.15,North,350,0.0,0.0,93,0.00,,,0.00,Wunderground v.1.15,2013-05-09 11:40:00,
2013-05-09 04:50:00,49.8,47.9,30.15,NNE,13,0.0,0.0,93,0.00,,,0.00,Wunderground v.1.15,2013-05-09 11:50:00,
2013-05-09 05:00:00,49.7,48.0,30.15,NNE,13,0.0,0.0,94,0.00,,,0.00,Wunderground v.1.15,2013-05-09 12:00:00,
2013-05-09 05:10:00,49.7,48.0,30.15,North,360,0.0,0.0,94,0.00,,,0.00,Wunderground v.1.15,2013-05-09 12:10:00,
2013-05-09 05:20:00,49.6,47.9,30.15,North,360,0.0,0.0,94,0.00,,,0.00,Wunderground v.1.15,2013-05-09 12:20:00,
2013-05-09 05:25:00,49.6,47.9,30.15,North,360,0.0,0.0,94,0.00,,,0.00,Wunderground v.1.15,2013-05-09 12:25:00,
2013-05-09 05:35:00,49.6,47.9,30.15,North,9,0.0,0.0,94,0.00,,,0.00,Wunderground v.1.15,2013-05-09 12:35:00,
2013-05-09 05:45:00,49.5,47.8,30.15,NW,309,0.0,0.0,94,0.00,,,0.00,Wunderground v.1.15,2013-05-09 12:45:00,
2013-05-09 05:50:00,49.5,47.8,30.15,NW,309,0.0,0.0,94,0.00,,,0.00,Wunderground v.1.15,2013-05-09 12:50:00,
2013-05-09 06:00:00,49.4,47.7,30.16,NNW,331,0.0,0.0,94,0.00,,,0.00,Wunderground v.1.15,2013-05-09 13:00:00,
2013-05-09 06:10:00,49.4,47.7,30.16,NNW,334,0.0,1.0,94,0.00,,,0.00,Wunderground v.1.15,2013-05-09 13:10:00,
2013-05-09 06:20:00,49.2,47.5,30.16,North,355,0.0,0.0,94,0.00,,,0.00,Wunderground v.1.15,2013-05-09 13:20:00,
2013-05-09 06:30:00,49.0,47.3,30.16,WNW,293,1.0,1.0,94,0.00,,,0.00,Wunderground v.1.15,2013-05-09 13:30:00,
2013-05-09 06:40:00,49.0,47.3,30.16,North,360,0.0,0.0,94,0.00,,,0.00,Wunderground v.1.15,2013-05-09 13:40:00,
2013-05-09 06:50:00,48.9,47.2,30.17,West,279,0.0,0.0,94,0.00,,,0.00,Wunderground v.1.15,2013-05-09 13:50:00,
2013-05-09 07:00:00,48.8,47.2,30.17,NW,310,1.0,1.0,94,0.00,,,0.00,Wunderground v.1.15,2013-05-09 14:00:00,
2013-05-09 07:10:00,48.8,47.4,30.17,NW,306,1.0,1.0,95,0.00,,,0.00,Wunderground v.1.15,2013-05-09 14:10:00,
2013-05-09 07:20:00,48.9,47.5,30.17,NW,306,0.0,0.0,95,0.00,,,0.00,Wunderground v.1.15,2013-05-09 14:20:00,
2013-05-09 07:30:00,49.0,47.3,30.17,NW,306,0.0,0.0,94,0.00,,,0.00,Wunderground v.1.15,2013-05-09 14:30:00,
2013-05-09 07:40:00,49.2,47.8,30.17,North,5,0.0,0.0,95,0.00,,,0.00,Wunderground v.1.15,2013-05-09 14:40:00,
2013-05-09 07:50:00,49.2,47.5,30.17,North,5,0.0,0.0,94,0.00,,,0.00,Wunderground v.1.15,2013-05-09 14:50:00,
2013-05-09 08:00:00,49.4,48.0,30.17,NW,323,0.0,0.0,95,0.00,,,0.00,Wunderground v.1.15,2013-05-09 15:00:00,
2013-05-09 08:10:00,49.4,47.7,30.17,NNW,342,1.0,1.0,94,0.00,,,0.00,Wunderground v.1.15,2013-05-09 15:10:00,
2013-05-09 08:20:00,49.3,47.9,30.17,NNW,345,0.0,0.0,95,0.00,,,0.00,Wunderground v.1.15,2013-05-09 15:20:00,
2013-05-09 08:30:00,49.5,47.8,30.17,North,360,1.0,1.0,94,0.00,,,0.00,Wunderground v.1.15,2013-05-09 15:30:00,
2013-05-09 08:40:00,49.5,47.8,30.17,WNW,292,1.0,2.0,94,0.00,,,0.00,Wunderground v.1.15,2013-05-09 15:40:00,
2013-05-09 08:45:00,49.6,47.9,30.17,NW,305,1.0,2.0,94,0.00,,,0.00,Wunderground v.1.15,2013-05-09 15:45:00,
2013-05-09 08:55:00,49.9,48.0,30.17,North,355,1.0,1.0,93,0.00,,,0.00,Wunderground v.1.15,2013-05-09 15:55:00,
2013-05-09 09:00:00,50.0,48.1,30.17,NNW,346,0.0,0.0,93,0.00,,,0.00,Wunderground v.1.15,2013-05-09 16:00:00,
2013-05-09 09:10:00,50.4,48.5,30.17,NE,38,0.0,0.0,93,0.00,,,0.00,Wunderground v.1.15,2013-05-09 16:10:00,
2013-05-09 09:20:00,50.7,48.7,30.16,North,5,0.0,0.0,93,0.00,,,0.00,Wunderground v.1.15,2013-05-09 16:20:00,
2013-05-09 09:30:00,50.8,48.6,30.17,NW,325,1.0,1.0,92,0.00,,,0.00,Wunderground v.1.15,2013-05-09 16:30:00,
2013-05-09 09:40:00,50.9,48.7,30.16,NNW,344,0.0,0.0,92,0.00,,,0.00,Wunderground v.1.15,2013-05-09 16:40:00,
2013-05-09 09:50:00,50.9,48.7,30.16,WNW,289,1.0,4.0,92,0.00,,,0.00,Wunderground v.1.15,2013-05-09 16:50:00,
2013-05-09 10:00:00,51.5,49.3,30.16,NNW,344,2.0,2.0,92,0.00,,,0.00,Wunderground v.1.15,2013-05-09 17:00:00,
2013-05-09 10:10:00,51.4,48.9,30.16,NW,313,2.0,3.0,91,0.00,,,0.00,Wunderground v.1.15,2013-05-09 17:10:00,
2013-05-09 10:20:00,51.6,49.1,30.16,NNW,346,1.0,1.0,91,0.00,,,0.00,Wunderground v.1.15,2013-05-09 17:20:00,
2013-05-09 10:30:00,52.3,49.8,30.16,North,355,0.0,0.0,91,0.00,,,0.00,Wunderground v.1.15,2013-05-09 17:30:00,
2013-05-09 10:35:00,52.6,50.0,30.15,ESE,107,1.0,1.0,91,0.00,,,0.00,Wunderground v.1.15,2013-05-09 17:35:00,
2013-05-09 10:45:00,53.0,50.1,30.15,SSE,154,0.0,0.0,90,0.00,,,0.00,Wunderground v.1.15,2013-05-09 17:45:00,
2013-05-09 10:50:00,53.5,50.6,30.15,SE,126,0.0,0.0,90,0.00,,,0.00,Wunderground v.1.15,2013-05-09 17:50:00,
2013-05-09 11:00:00,54.6,50.5,30.15,NNE,23,1.0,3.0,86,0.00,,,0.00,Wunderground v.1.15,2013-05-09 18:00:00,
2013-05-09 11:10:00,55.4,51.3,30.15,South,189,1.0,1.0,86,0.00,,,0.00,Wunderground v.1.15,2013-05-09 18:10:00,
2013-05-09 11:20:00,57.1,52.3,30.15,SE,134,1.0,1.0,84,0.00,,,0.00,Wunderground v.1.15,2013-05-09 18:20:00,
2013-05-09 11:30:00,58.2,52.4,30.15,NE,41,1.0,1.0,81,0.00,,,0.00,Wunderground v.1.15,2013-05-09 18:30:00,
2013-05-09 11:40:00,59.1,54.6,30.14,North,351,1.0,1.0,85,0.00,,,0.00,Wunderground v.1.15,2013-05-09 18:40:00,
2013-05-09 11:50:00,59.5,53.3,30.14,WNW,293,3.0,3.0,80,0.00,,,0.00,Wunderground v.1.15,2013-05-09 18:50:00,
2013-05-09 12:00:00,60.4,55.2,30.13,North,5,2.0,2.0,83,0.00,,,0.00,Wunderground v.1.15,2013-05-09 19:00:00,
2013-05-09 12:10:00,62.0,55.1,30.13,NNE,27,3.0,3.0,78,0.00,,,0.00,Wunderground v.1.15,2013-05-09 19:10:00,
2013-05-09 12:20:00,62.3,55.0,30.13,NW,317,3.0,5.0,77,0.00,,,0.00,Wunderground v.1.15,2013-05-09 19:20:00,
2013-05-09 12:30:00,63.3,57.0,30.13,North,5,3.0,3.0,80,0.00,,,0.00,Wunderground v.1.15,2013-05-09 19:30:00,
2013-05-09 12:40:00,64.9,57.5,30.12,North,9,3.0,3.0,77,0.00,,,0.00,Wunderground v.1.15,2013-05-09 19:40:00,
2013-05-09 12:45:00,65.4,57.3,30.12,North,360,3.0,3.0,75,0.00,,,0.00,Wunderground v.1.15,2013-05-09 19:45:00,
2013-05-09 12:55:00,67.2,58.6,30.12,NNE,18,1.0,3.0,74,0.00,,,0.00,Wunderground v.1.15,2013-05-09 19:55:00,
2013-05-09 13:00:00,67.7,58.0,30.12,NW,313,2.0,4.0,71,0.00,,,0.00,Wunderground v.1.15,2013-05-09 20:00:00,
2013-05-09 13:10:00,68.2,57.6,30.11,NNE,26,2.0,5.0,69,0.00,,,0.00,Wunderground v.1.15,2013-05-09 20:10:00,
2013-05-09 13:20:00,69.4,58.0,30.11,WNW,301,3.0,4.0,67,0.00,,,0.00,Wunderground v.1.15,2013-05-09 20:20:00,
2013-05-09 13:25:00,69.5,58.9,30.11,North,5,3.0,3.0,69,0.00,,,0.00,Wunderground v.1.15,2013-05-09 20:25:00,
2013-05-09 13:35:00,70.4,58.9,30.11,NW,318,2.0,2.0,67,0.00,,,0.00,Wunderground v.1.15,2013-05-09 20:35:00,
2013-05-09 13:45:00,70.1,57.8,30.11,West,276,3.0,3.0,65,0.00,,,0.00,Wunderground v.1.15,2013-05-09 20:45:00,
2013-05-09 13:50:00,69.8,57.9,30.11,WNW,299,4.0,4.0,66,0.00,,,0.00,Wunderground v.1.15,2013-05-09 20:50:00,
2013-05-09 14:00:00,70.2,57.4,30.11,WSW,252,4.0,4.0,64,0.00,,,0.00,Wunderground v.1.15,2013-05-09 21:00:00,
2013-05-09 14:10:00,68.5,56.3,30.12,WSW,256,5.0,5.0,65,0.00,,,0.00,Wunderground v.1.15,2013-05-09 21:10:00,
2013-05-09 14:20:00,66.3,55.4,30.12,WNW,301,5.0,5.0,68,0.00,,,0.00,Wunderground v.1.15,2013-05-09 21:20:00,
2013-05-09 14:30:00,65.9,55.4,30.11,West,259,5.0,5.0,69,0.00,,,0.00,Wunderground v.1.15,2013-05-09 21:30:00,
2013-05-09 14:40:00,65.9,55.4,30.12,NNW,346,4.0,4.0,69,0.00,,,0.00,Wunderground v.1.15,2013-05-09 21:40:00,
2013-05-09 14:50:00,66.4,55.9,30.12,NNW,348,4.0,5.0,69,0.00,,,0.00,Wunderground v.1.15,2013-05-09 21:50:00,
2013-05-09 15:00:00,66.6,56.9,30.11,NNW,343,4.0,4.0,71,0.00,,,0.00,Wunderground v.1.15,2013-05-09 22:00:00,
2013-05-09 15:10:00,66.3,55.4,30.11,North,349,3.0,3.0,68,0.00,,,0.00,Wunderground v.1.15,2013-05-09 22:10:00,
2013-05-09 15:20:00,66.4,57.1,30.11,North,350,4.0,4.0,72,0.00,,,0.00,Wunderground v.1.15,2013-05-09 22:20:00,
2013-05-09 15:30:00,66.6,55.3,30.11,NNE,19,3.0,3.0,67,0.00,,,0.00,Wunderground v.1.15,2013-05-09 22:30:00,
2013-05-09 15:40:00,66.8,55.5,30.11,NW,309,3.0,3.0,67,0.00,,,0.00,Wunderground v.1.15,2013-05-09 22:40:00,
2013-05-09 15:50:00,67.0,56.5,30.10,North,360,2.0,2.0,69,0.00,,,0.00,Wunderground v.1.15,2013-05-09 22:50:00,
2013-05-09 16:00:00,66.3,56.2,30.10,NNW,336,3.0,3.0,70,0.00,,,0.00,Wunderground v.1.15,2013-05-09 23:00:00,
2013-05-09 16:10:00,65.7,54.8,30.10,North,355,3.0,3.0,68,0.00,,,0.00,Wunderground v.1.15,2013-05-09 23:10:00,
2013-05-09 16:20:00,65.1,54.3,30.10,NW,309,4.0,4.0,68,0.00,,,0.00,Wunderground v.1.15,2013-05-09 23:20:00,
2013-05-09 16:30:00,65.0,55.0,30.10,NNW,341,3.0,3.0,70,0.00,,,0.00,Wunderground v.1.15,2013-05-09 23:30:00,
2013-05-09 16:40:00,64.7,54.3,30.09,West,260,3.0,3.0,69,0.00,,,0.00,Wunderground v.1.15,2013-05-09 23:40:00,
2013-05-09 16:50:00,64.7,54.7,30.09,WNW,302,2.0,2.0,70,0.00,,,0.00,Wunderground v.1.15,2013-05-09 23:50:00,
2013-05-09 17:00:00,64.3,53.9,30.09,West,268,2.0,4.0,69,0.00,,,0.00,Wunderground v.1.15,2013-05-10 00:00:00,
2013-05-09 17:10:00,63.8,53.8,30.09,NW,316,3.0,3.0,70,0.00,,,0.00,Wunderground v.1.15,2013-05-10 00:10:00,
2013-05-09 17:20:00,62.6,53.4,30.10,NW,310,3.0,4.0,72,0.00,,,0.00,Wunderground v.1.15,2013-05-10 00:20:00,
2013-05-09 17:30:00,61.7,53.0,30.10,WNW,298,5.0,5.0,73,0.00,,,0.00,Wunderground v.1.15,2013-05-10 00:30:00,
2013-05-09 17:40:00,61.0,53.0,30.10,NNW,342,4.0,5.0,75,0.00,,,0.00,Wunderground v.1.15,2013-05-10 00:40:00,
2013-05-09 17:45:00,61.2,53.2,30.09,North,355,3.0,5.0,75,0.00,,,0.00,Wunderground v.1.15,2013-05-10 00:45:00,
2013-05-09 17:55:00,61.4,53.4,30.09,North,5,2.0,6.0,75,0.00,,,0.00,Wunderground v.1.15,2013-05-10 00:55:00,
2013-05-09 18:00:00,61.6,53.2,30.09,SW,233,2.0,5.0,74,0.00,,,0.00,Wunderground v.1.15,2013-05-10 01:00:00,
2013-05-09 18:10:00,61.2,53.2,30.09,WNW,286,3.0,3.0,75,0.00,,,0.00,Wunderground v.1.15,2013-05-10 01:10:00,
2013-05-09 18:20:00,60.8,53.5,30.10,North,9,2.0,2.0,77,0.00,,,0.00,Wunderground v.1.15,2013-05-10 01:20:00,
2013-05-09 18:30:00,60.4,52.8,30.10,West,259,2.0,2.0,76,0.00,,,0.00,Wunderground v.1.15,2013-05-10 01:30:00,
2013-05-09 18:40:00,59.8,52.6,30.09,North,355,3.0,3.0,77,0.00,,,0.00,Wunderground v.1.15,2013-05-10 01:40:00,
2013-05-09 18:50:00,59.2,52.7,30.10,WNW,284,1.0,1.0,79,0.00,,,0.00,Wunderground v.1.15,2013-05-10 01:50:00,
2013-05-09 19:00:00,59.0,52.5,30.10,North,5,0.0,1.0,79,0.00,,,0.00,Wunderground v.1.15,2013-05-10 02:00:00,
2013-05-09 19:10:00,58.4,51.9,30.10,North,355,2.0,2.0,79,0.00,,,0.00,Wunderground v.1.15,2013-05-10 02:10:00,
2013-05-09 19:20:00,57.3,51.5,30.11,WNW,298,2.0,4.0,81,0.00,,,0.00,Wunderground v.1.15,2013-05-10 02:20:00,
2013-05-09 19:30:00,56.5,51.1,30.12,WNW,285,2.0,3.0,82,0.00,,,0.00,Wunderground v.1.15,2013-05-10 02:30:00,
2013-05-09 19:40:00,56.0,50.9,30.12,WNW,300,1.0,4.0,83,0.00,,,0.00,Wunderground v.1.15,2013-05-10 02:40:00,
2013-05-09 19:50:00,55.3,50.5,30.13,WNW,290,1.0,3.0,84,0.00,,,0.00,Wunderground v.1.15,2013-05-10 02:50:00,
2013-05-09 20:00:00,54.2,49.8,30.13,West,281,3.0,3.0,85,0.00,,,0.00,Wunderground v.1.15,2013-05-10 03:00:00,
2013-05-09 20:10:00,53.5,49.4,30.14,WSW,246,1.0,1.0,86,0.00,,,0.00,Wunderground v.1.15,2013-05-10 03:10:00,
2013-05-09 20:20:00,53.0,49.2,30.14,NE,44,1.0,1.0,87,0.00,,,0.00,Wunderground v.1.15,2013-05-10 03:20:00,
2013-05-09 20:30:00,52.7,49.2,30.14,NNW,340,0.0,0.0,88,0.00,,,0.00,Wunderground v.1.15,2013-05-10 03:30:00,
2013-05-09 20:40:00,52.1,49.0,30.15,WNW,294,1.0,2.0,89,0.00,,,0.00,Wunderground v.1.15,2013-05-10 03:40:00,
2013-05-09 20:50:00,51.7,48.9,30.15,WNW,303,1.0,1.0,90,0.00,,,0.00,Wunderground v.1.15,2013-05-10 03:50:00,
2013-05-09 21:00:00,51.1,48.6,30.15,North,360,2.0,2.0,91,0.00,,,0.00,Wunderground v.1.15,2013-05-10 04:00:00,
2013-05-09 21:05:00,50.9,48.4,30.15,NNE,30,2.0,2.0,91,0.00,,,0.00,Wunderground v.1.15,2013-05-10 04:05:00,
2013-05-09 21:10:00,50.7,48.2,30.16,WNW,301,2.0,2.0,91,0.00,,,0.00,Wunderground v.1.15,2013-05-10 04:10:00,
2013-05-09 21:15:00,50.6,48.4,30.16,NNE,20,1.0,2.0,92,0.00,,,0.00,Wunderground v.1.15,2013-05-10 04:15:00,
2013-05-09 21:20:00,50.5,48.3,30.16,NW,322,2.0,3.0,92,0.00,,,0.00,Wunderground v.1.15,2013-05-10 04:20:00,
2013-05-09 21:30:00,50.4,48.2,30.16,West,263,1.0,3.0,92,0.00,,,0.00,Wunderground v.1.15,2013-05-10 04:30:00,
2013-05-09 21:40:00,50.3,48.1,30.16,SW,220,1.0,1.0,92,0.00,,,0.00,Wunderground v.1.15,2013-05-10 04:40:00,
2013-05-09 21:50:00,50.1,48.2,30.17,WNW,282,1.0,1.0,93,0.00,,,0.00,Wunderground v.1.15,2013-05-10 04:50:00,
2013-05-09 22:00:00,50.0,48.1,30.17,SSW,194,1.0,1.0,93,0.00,,,0.00,Wunderground v.1.15,2013-05-10 05:00:00,
2013-05-09 22:10:00,49.9,48.0,30.17,WNW,302,1.0,1.0,93,0.00,,,0.00,Wunderground v.1.15,2013-05-10 05:10:00,
2013-05-09 22:20:00,49.9,48.2,30.17,WNW,294,1.0,1.0,94,0.00,,,0.00,Wunderground v.1.15,2013-05-10 05:20:00,
2013-05-09 22:30:00,49.9,48.2,30.17,SSW,207,0.0,0.0,94,0.00,,,0.00,Wunderground v.1.15,2013-05-10 05:30:00,
2013-05-09 22:40:00,49.9,48.2,30.17,WSW,254,0.0,0.0,94,0.00,,,0.00,Wunderground v.1.15,2013-05-10 05:40:00,
2013-05-09 22:50:00,49.9,48.2,30.17,WSW,244,0.0,0.0,94,0.00,,,0.00,Wunderground v.1.15,2013-05-10 05:50:00,
2013-05-09 23:00:00,49.7,48.0,30.17,WSW,252,1.0,2.0,94,0.00,,,0.00,Wunderground v.1.15,2013-05-10 06:00:00,
2013-05-09 23:10:00,49.6,47.9,30.17,NW,323,1.0,1.0,94,0.00,,,0.00,Wunderground v.1.15,2013-05-10 06:10:00,
2013-05-09 23:20:00,49.5,47.8,30.17,WNW,284,1.0,2.0,94,0.00,,,0.00,Wunderground v.1.15,2013-05-10 06:20:00,
2013-05-09 23:30:00,49.5,48.1,30.18,WSW,237,1.0,1.0,95,0.00,,,0.00,Wunderground v.1.15,2013-05-10 06:30:00,
2013-05-09 23:40:00,49.4,47.7,30.18,SSE,166,1.0,1.0,94,0.00,,,0.00,Wunderground v.1.15,2013-05-10 06:40:00,
2013-05-09 23:50:00,49.3,47.6,30.19,NNW,340,1.0,1.0,94,0.00,,,0.00,Wunderground v.1.15,2013-05-10 06:50:00,